• In Romania
  • List of Countries
  • For 7 days
  • Water Temperature
  • Satellite Maps
  • Weather Map
  • Weather Widgets
  • user-avatar
    Login

    Hourly Weather Ondjiwa

    Today, 26 June, Monday

    Time Temperature Precipitation Wind Pressure Humidity
    00:00 +15°C° 0 mm 2 mps 667 mmHg 36%
    01:00 +14°C° 0 mm 2 mps 667 mmHg 37%
    02:00 +13°C° 0 mm 2 mps 667 mmHg 40%
    03:00 +13°C° 0 mm 2 mps 667 mmHg 43%
    04:00 +12°C° 0 mm 2 mps 667 mmHg 45%
    05:00 +12°C° 0 mm 2 mps 667 mmHg 46%
    06:00 +13°C° 0 mm 2 mps 667 mmHg 47%
    07:00 +13°C° 0 mm 2 mps 668 mmHg 48%
    08:00 +17°C° 0 mm 3 mps 669 mmHg 41%
    09:00 +21°C° 0 mm 3 mps 670 mmHg 34%
    10:00 +25°C° 0 mm 4 mps 671 mmHg 27%
    11:00 +28°C° 0 mm 4 mps 670 mmHg 23%
    12:00 +30°C° 0 mm 4 mps 670 mmHg 20%
    13:00 +32°C° 0 mm 4 mps 670 mmHg 16%
    14:00 +32°C° 0 mm 4 mps 670 mmHg 16%
    15:00 +31°C° 0 mm 3 mps 669 mmHg 16%
    16:00 +31°C° 0 mm 3 mps 669 mmHg 15%
    17:00 +27°C° 0 mm 2 mps 668 mmHg 24%
    18:00 +23°C° 0 mm 2 mps 668 mmHg 32%
    19:00 +19°C° 0 mm 2 mps 667 mmHg 40%
    20:00 +18°C° 0 mm 2 mps 667 mmHg 40%
    21:00 +17°C° 0 mm 2 mps 668 mmHg 40%
    22:00 +16°C° 0 mm 1 mps 668 mmHg 39%
    23:00 +16°C° 0 mm 1 mps 668 mmHg 40%

    Tomorrow, 27 June, Tuesday

    Time Temperature Precipitation Wind Pressure Humidity
    00:00 +15°C° 0 mm 1 mps 668 mmHg 41%
    01:00 +14°C° 0 mm 1 mps 668 mmHg 41%
    02:00 +14°C° 0 mm 1 mps 668 mmHg 44%
    03:00 +13°C° 0 mm 1 mps 667 mmHg 47%
    04:00 +13°C° 0 mm 1 mps 667 mmHg 51%
    05:00 +13°C° 0 mm 1 mps 668 mmHg 50%
    06:00 +13°C° 0 mm 1 mps 668 mmHg 49%
    07:00 +14°C° 0 mm 1 mps 668 mmHg 48%
    08:00 +19°C° 0 mm 1 mps 670 mmHg 39%
    09:00 +23°C° 0 mm 1 mps 671 mmHg 30%
    10:00 +27°C° 0 mm 1 mps 672 mmHg 22%
    11:00 +29°C° 0 mm 2 mps 671 mmHg 21%
    12:00 +30°C° 0 mm 2 mps 671 mmHg 20%
    13:00 +32°C° 0 mm 2 mps 671 mmHg 19%
    14:00 +32°C° 0 mm 2 mps 670 mmHg 18%
    15:00 +32°C° 0 mm 2 mps 670 mmHg 17%
    16:00 +31°C° 0 mm 2 mps 669 mmHg 16%
    17:00 +28°C° 0 mm 2 mps 669 mmHg 20%
    18:00 +24°C° 0 mm 2 mps 668 mmHg 24%
    19:00 +20°C° 0 mm 2 mps 668 mmHg 28%
    20:00 +19°C° 0 mm 2 mps 668 mmHg 30%
    21:00 +18°C° 0 mm 2 mps 668 mmHg 31%
    22:00 +17°C° 0 mm 2 mps 668 mmHg 33%
    23:00 +16°C° 0 mm 2 mps 668 mmHg 35%

    Day after tomorrow, 28 June, Wednesday

    Time Temperature Precipitation Wind Pressure Humidity
    00:00 +16°C° 0 mm 2 mps 668 mmHg 36%
    01:00 +15°C° 0 mm 2 mps 668 mmHg 38%
    02:00 +14°C° 0 mm 2 mps 667 mmHg 39%
    03:00 +14°C° 0 mm 2 mps 667 mmHg 40%
    04:00 +13°C° 0 mm 2 mps 667 mmHg 41%
    05:00 +13°C° 0 mm 2 mps 667 mmHg 41%
    06:00 +13°C° 0 mm 2 mps 668 mmHg 41%
    07:00 +14°C° 0 mm 2 mps 668 mmHg 41%
    08:00 +18°C° 0 mm 2 mps 669 mmHg 34%
    09:00 +23°C° 0 mm 2 mps 671 mmHg 27%
    10:00 +27°C° 0 mm 2 mps 672 mmHg 20%
    11:00 +28°C° 0 mm 2 mps 671 mmHg 18%
    12:00 +30°C° 0 mm 1 mps 671 mmHg 17%
    13:00 +32°C° 0 mm 1 mps 670 mmHg 16%
    14:00 +31°C° 0 mm 1 mps 670 mmHg 16%
    15:00 +31°C° 0 mm 1 mps 669 mmHg 15%
    16:00 +29°C° 0 mm 0 mps 668 mmHg 15%
    17:00 +27°C° 0 mm 1 mps 668 mmHg 22%
    18:00 +23°C° 0 mm 1 mps 667 mmHg 30%
    19:00 +19°C° 0 mm 1 mps 666 mmHg 37%
    20:00 +18°C° 0 mm 2 mps 667 mmHg 35%
    21:00 +18°C° 0 mm 2 mps 667 mmHg 32%
    22:00 +18°C° 0 mm 2 mps 668 mmHg 30%
    23:00 +17°C° 0 mm 2 mps 668 mmHg 33%

    29 June, Thursday

    Time Temperature Precipitation Wind Pressure Humidity
    00:00 +16°C° 0 mm 2 mps 667 mmHg 35%
    01:00 +15°C° 0 mm 2 mps 667 mmHg 37%
    02:00 +15°C° 0 mm 2 mps 667 mmHg 38%
    03:00 +15°C° 0 mm 2 mps 667 mmHg 39%
    04:00 +15°C° 0 mm 2 mps 667 mmHg 40%
    05:00 +15°C° 0 mm 2 mps 667 mmHg 42%
    06:00 +15°C° 0 mm 2 mps 668 mmHg 43%
    07:00 +14°C° 0 mm 2 mps 668 mmHg 44%
    08:00 +18°C° 0 mm 3 mps 669 mmHg 37%
    09:00 +22°C° 0 mm 4 mps 670 mmHg 30%
    10:00 +27°C° 0 mm 5 mps 671 mmHg 23%
    11:00 +28°C° 0 mm 5 mps 671 mmHg 21%
    12:00 +30°C° 0 mm 5 mps 670 mmHg 18%
    13:00 +33°C° 0 mm 4 mps 670 mmHg 16%
    14:00 +33°C° 0 mm 4 mps 669 mmHg 16%
    15:00 +33°C° 0 mm 3 mps 669 mmHg 15%
    16:00 +31°C° 0 mm 3 mps 668 mmHg 15%
    17:00 +28°C° 0 mm 3 mps 668 mmHg 19%
    18:00 +25°C° 0 mm 3 mps 668 mmHg 24%
    19:00 +21°C° 0 mm 3 mps 668 mmHg 28%
    20:00 +20°C° 0 mm 3 mps 668 mmHg 29%
    21:00 +19°C° 0 mm 3 mps 668 mmHg 31%
    22:00 +19°C° 0 mm 3 mps 669 mmHg 32%
    23:00 +18°C° 0 mm 3 mps 668 mmHg 34%

    30 June, Friday

    Time Temperature Precipitation Wind Pressure Humidity
    00:00 +17°C° 0 mm 3 mps 668 mmHg 36%
    01:00 +16°C° 0 mm 3 mps 668 mmHg 38%
    02:00 +14°C° 0 mm 3 mps 668 mmHg 40%
    03:00 +15°C° 0 mm 2 mps 668 mmHg 42%
    04:00 +14°C° 0 mm 2 mps 667 mmHg 44%
    05:00 +14°C° 0 mm 2 mps 668 mmHg 44%
    06:00 +14°C° 0 mm 2 mps 668 mmHg 44%
    07:00 +13°C° 0 mm 2 mps 669 mmHg 44%
    08:00 +17°C° 0 mm 3 mps 670 mmHg 37%
    09:00 +21°C° 0 mm 4 mps 671 mmHg 29%
    10:00 +26°C° 0 mm 5 mps 672 mmHg 22%
    11:00 +28°C° 0 mm 4 mps 671 mmHg 19%
    12:00 +29°C° 0 mm 4 mps 671 mmHg 17%
    13:00 +32°C° 0 mm 4 mps 670 mmHg 15%
    14:00 +31°C° 0 mm 3 mps 670 mmHg 15%
    15:00 +31°C° 0 mm 3 mps 669 mmHg 15%
    16:00 +31°C° 0 mm 2 mps 669 mmHg 15%
    17:00 +27°C° 0 mm 2 mps 669 mmHg 20%
    18:00 +24°C° 0 mm 2 mps 668 mmHg 25%
    19:00 +20°C° 0 mm 2 mps 668 mmHg 29%
    20:00 +19°C° 0 mm 2 mps 668 mmHg 30%
    21:00 +19°C° 0 mm 3 mps 668 mmHg 31%
    22:00 +19°C° 0 mm 3 mps 669 mmHg 32%
    23:00 +18°C° 0 mm 3 mps 669 mmHg 34%

    1 July, Saturday

    Time Temperature Precipitation Wind Pressure Humidity
    00:00 +17°C° 0 mm 3 mps 668 mmHg 36%
    01:00 +16°C° 0 mm 3 mps 668 mmHg 38%
    02:00 +15°C° 0 mm 2 mps 668 mmHg 41%
    03:00 +14°C° 0 mm 2 mps 667 mmHg 44%
    04:00 +13°C° 0 mm 2 mps 667 mmHg 47%
    05:00 +13°C° 0 mm 2 mps 668 mmHg 47%
    06:00 +13°C° 0 mm 2 mps 668 mmHg 47%
    07:00 +13°C° 0 mm 2 mps 669 mmHg 47%
    08:00 +17°C° 0 mm 2 mps 670 mmHg 39%
    09:00 +21°C° 0 mm 3 mps 671 mmHg 31%
    10:00 +26°C° 0 mm 4 mps 672 mmHg 23%
    11:00 +28°C° 0 mm 3 mps 671 mmHg 21%
    12:00 +29°C° 0 mm 3 mps 671 mmHg 19%
    13:00 +31°C° 0 mm 3 mps 670 mmHg 17%
    14:00 +31°C° 0 mm 3 mps 670 mmHg 16%
    15:00 +31°C° 0 mm 2 mps 669 mmHg 16%
    16:00 +31°C° 0 mm 2 mps 669 mmHg 16%
    17:00 +27°C° 0 mm 2 mps 669 mmHg 21%
    18:00 +24°C° 0 mm 2 mps 668 mmHg 27%
    19:00 +19°C° 0 mm 2 mps 668 mmHg 32%
    20:00 +19°C° 0 mm 2 mps 668 mmHg 33%
    21:00 +18°C° 0 mm 2 mps 668 mmHg 33%
    22:00 +18°C° 0 mm 2 mps 668 mmHg 33%
    23:00 +17°C° 0 mm 3 mps 668 mmHg 35%
    Show more